Location: Luxembourg
(49.6117°N, 6.1300°E)
Time: 07:10:15
(UTC+01:00)

Envisat - Pass Details

Date: 27 January 2019
Orbit: 764 x 766 km, 98.2° (Epoch: 17 February)

Event Time Altitude Azimuth Distance (km) Brightness Sun altitude
Rises 18:03:38 0° 132° (SE) 3,225 6.0 -7.0°
Reaches altitude 10° 18:06:11 10° 121° (ESE) 2,303 5.1 -7.4°
Maximum altitude 18:10:30 29° 63° (ENE) 1,381 3.8 -8.0°
Drops below altitude 10° 18:14:50 10° 4° (N) 2,315 5.3 -8.7°
Sets 18:17:24 0° 354° (N) 3,246 6.1 -9.1°
